• In Portugal
  • List of Countries
  • For 7 days
  • Water Temperature
  • Satellite Maps
  • Weather Map
  • Weather Widgets
  • user-avatar
    Login

    Hourly Weather Andora

    Today, 15 August, Wednesday

    Time Temperature Precipitation Wind Pressure Humidity
    00:00 +8°C° 0 mm 2 mps 628 mmHg 76%
    01:00 +8°C° 0 mm 2 mps 627 mmHg 77%
    02:00 +8°C° 0 mm 2 mps 627 mmHg 78%
    03:00 +8°C° 0 mm 2 mps 627 mmHg 79%
    04:00 +8°C° 0 mm 2 mps 627 mmHg 77%
    05:00 +9°C° 0 mm 2 mps 627 mmHg 76%
    06:00 +9°C° 0 mm 2 mps 628 mmHg 74%
    07:00 +13°C° 0 mm 1 mps 629 mmHg 63%
    08:00 +15°C° 0 mm 1 mps 630 mmHg 53%
    09:00 +19°C° 0 mm 1 mps 631 mmHg 42%
    10:00 +20°C° 0 mm 1 mps 631 mmHg 40%
    11:00 +22°C° 0 mm 1 mps 631 mmHg 37%
    12:00 +23°C° 0 mm 1 mps 632 mmHg 36%
    13:00 +23°C° 0 mm 1 mps 631 mmHg 37%
    14:00 +23°C° 0 mm 1 mps 631 mmHg 37%
    15:00 +23°C° 0 mm 1 mps 631 mmHg 38%
    16:00 +22°C° 0 mm 1 mps 630 mmHg 45%
    17:00 +21°C° 0 mm 1 mps 629 mmHg 52%
    18:00 +19°C° 0 mm 1 mps 629 mmHg 59%
    19:00 +16°C° 0 mm 1 mps 628 mmHg 65%
    20:00 +15°C° 0 mm 1 mps 628 mmHg 71%
    21:00 +13°C° 0 mm 1 mps 627 mmHg 77%
    22:00 +13°C° 0 mm 1 mps 627 mmHg 78%
    23:00 +12°C° 0 mm 1 mps 627 mmHg 80%

    Tomorrow, 16 August, Thursday

    Time Temperature Precipitation Wind Pressure Humidity
    00:00 +12°C° 0 mm 1 mps 627 mmHg 82%
    01:00 +12°C° 0 mm 1 mps 627 mmHg 82%
    02:00 +12°C° 0 mm 1 mps 626 mmHg 82%
    03:00 +12°C° 0 mm 1 mps 626 mmHg 83%
    04:00 +12°C° 0 mm 1 mps 626 mmHg 82%
    05:00 +12°C° 0 mm 1 mps 626 mmHg 80%
    06:00 +13°C° 0 mm 1 mps 626 mmHg 79%
    07:00 +15°C° 0 mm 1 mps 627 mmHg 70%
    08:00 +19°C° 0 mm 1 mps 628 mmHg 61%
    09:00 +21°C° 0 mm 1 mps 629 mmHg 52%
    10:00 +21°C° 0.3 mm 1 mps 629 mmHg 53%
    11:00 +22°C° 0.3 mm 1 mps 629 mmHg 53%
    12:00 +21°C° 0.3 mm 2 mps 629 mmHg 53%
    13:00 +22°C° 1 mm 1 mps 629 mmHg 55%
    14:00 +22°C° 1 mm 1 mps 628 mmHg 56%
    15:00 +21°C° 1 mm 1 mps 628 mmHg 57%
    16:00 +20°C° 1 mm 1 mps 628 mmHg 62%
    17:00 +19°C° 1 mm 1 mps 627 mmHg 67%
    18:00 +18°C° 1 mm 1 mps 627 mmHg 72%
    19:00 +16°C° 1 mm 1 mps 627 mmHg 77%
    20:00 +15°C° 1 mm 1 mps 627 mmHg 82%
    21:00 +14°C° 1 mm 1 mps 627 mmHg 87%
    22:00 +13°C° 1.2 mm 1 mps 627 mmHg 88%
    23:00 +13°C° 1.2 mm 1 mps 627 mmHg 89%

    Day after tomorrow, 17 August, Friday

    Time Temperature Precipitation Wind Pressure Humidity
    00:00 +13°C° 1.2 mm 1 mps 627 mmHg 90%
    01:00 +13°C° 1 mm 1 mps 627 mmHg 91%
    02:00 +13°C° 1 mm 1 mps 627 mmHg 91%
    03:00 +12°C° 1 mm 1 mps 627 mmHg 91%
    04:00 +12°C° 0.4 mm 1 mps 627 mmHg 91%
    05:00 +12°C° 0.4 mm 1 mps 627 mmHg 90%
    06:00 +12°C° 0.4 mm 1 mps 627 mmHg 90%
    07:00 +13°C° 0.3 mm 1 mps 627 mmHg 86%
    08:00 +14°C° 0.3 mm 1 mps 628 mmHg 83%
    09:00 +15°C° 0.3 mm 1 mps 628 mmHg 79%
    10:00 +15°C° 0.3 mm 2 mps 629 mmHg 74%
    11:00 +16°C° 0.3 mm 2 mps 629 mmHg 70%
    12:00 +17°C° 0.3 mm 2 mps 629 mmHg 66%
    13:00 +17°C° 1 mm 2 mps 629 mmHg 67%
    14:00 +17°C° 1 mm 2 mps 629 mmHg 69%
    15:00 +17°C° 1 mm 2 mps 629 mmHg 71%
    16:00 +16°C° 1 mm 2 mps 628 mmHg 75%
    17:00 +15°C° 1 mm 2 mps 628 mmHg 79%
    18:00 +14°C° 1 mm 2 mps 628 mmHg 83%
    19:00 +13°C° 0.1 mm 2 mps 628 mmHg 85%
    20:00 +12°C° 0.1 mm 2 mps 628 mmHg 87%
    21:00 +9°C° 0.1 mm 2 mps 628 mmHg 89%
    22:00 +9°C° 0 mm 2 mps 628 mmHg 89%
    23:00 +9°C° 0 mm 2 mps 628 mmHg 89%

    18 August, Saturday

    Time Temperature Precipitation Wind Pressure Humidity
    00:00 +8°C° 0 mm 2 mps 628 mmHg 89%
    01:00 +8°C° 0 mm 2 mps 627 mmHg 88%
    02:00 +7°C° 0 mm 2 mps 627 mmHg 88%
    03:00 +7°C° 0 mm 2 mps 627 mmHg 87%
    04:00 +7°C° 0 mm 2 mps 627 mmHg 86%
    05:00 +7°C° 0 mm 2 mps 627 mmHg 84%
    06:00 +7°C° 0 mm 2 mps 627 mmHg 82%
    07:00 +9°C° 0 mm 2 mps 628 mmHg 71%
    08:00 +13°C° 0 mm 2 mps 630 mmHg 59%
    09:00 +15°C° 0 mm 2 mps 631 mmHg 47%
    10:00 +16°C° 0 mm 2 mps 631 mmHg 43%
    11:00 +18°C° 0 mm 2 mps 631 mmHg 40%
    12:00 +19°C° 0 mm 2 mps 631 mmHg 36%
    13:00 +19°C° 0 mm 2 mps 631 mmHg 37%
    14:00 +19°C° 0 mm 2 mps 631 mmHg 38%
    15:00 +19°C° 0 mm 2 mps 631 mmHg 39%
    16:00 +18°C° 0 mm 2 mps 630 mmHg 46%
    17:00 +17°C° 0 mm 2 mps 630 mmHg 53%
    18:00 +15°C° 0 mm 2 mps 629 mmHg 60%
    19:00 +14°C° 0 mm 2 mps 629 mmHg 65%
    20:00 +12°C° 0 mm 2 mps 629 mmHg 70%
    21:00 +9°C° 0 mm 2 mps 628 mmHg 75%
    22:00 +9°C° 0 mm 2 mps 628 mmHg 74%
    23:00 +9°C° 0 mm 2 mps 628 mmHg 72%

    19 August, Sunday

    Time Temperature Precipitation Wind Pressure Humidity
    00:00 +8°C° 0 mm 2 mps 628 mmHg 70%
    01:00 +8°C° 0 mm 2 mps 628 mmHg 68%
    02:00 +8°C° 0 mm 2 mps 628 mmHg 65%
    03:00 +7°C° 0 mm 2 mps 627 mmHg 62%
    04:00 +8°C° 0 mm 2 mps 628 mmHg 61%
    05:00 +8°C° 0 mm 2 mps 628 mmHg 59%
    06:00 +8°C° 0 mm 2 mps 628 mmHg 58%
    07:00 +12°C° 0 mm 2 mps 629 mmHg 50%
    08:00 +15°C° 0 mm 1 mps 631 mmHg 43%
    09:00 +19°C° 0 mm 1 mps 632 mmHg 36%
    10:00 +20°C° 0 mm 1 mps 632 mmHg 34%
    11:00 +21°C° 0 mm 1 mps 632 mmHg 33%
    12:00 +22°C° 0 mm 1 mps 633 mmHg 31%
    13:00 +23°C° 0 mm 1 mps 632 mmHg 32%
    14:00 +23°C° 0 mm 1 mps 632 mmHg 33%
    15:00 +23°C° 0 mm 1 mps 632 mmHg 34%
    16:00 +21°C° 0 mm 1 mps 631 mmHg 41%
    17:00 +20°C° 0 mm 1 mps 631 mmHg 48%
    18:00 +18°C° 0 mm 1 mps 630 mmHg 55%
    19:00 +15°C° 0 mm 2 mps 630 mmHg 60%
    20:00 +14°C° 0 mm 2 mps 630 mmHg 65%
    21:00 +12°C° 0 mm 2 mps 629 mmHg 71%
    22:00 +12°C° 0 mm 2 mps 629 mmHg 70%
    23:00 +10°C° 0 mm 2 mps 629 mmHg 69%

    20 August, Monday

    Time Temperature Precipitation Wind Pressure Humidity
    00:00 +10°C° 0 mm 2 mps 629 mmHg 69%
    01:00 +10°C° 0 mm 2 mps 629 mmHg 67%
    02:00 +9°C° 0 mm 2 mps 628 mmHg 65%
    03:00 +9°C° 0 mm 2 mps 628 mmHg 63%
    04:00 +9°C° 0 mm 2 mps 628 mmHg 62%
    05:00 +9°C° 0 mm 2 mps 629 mmHg 61%
    06:00 +10°C° 0 mm 2 mps 629 mmHg 61%
    07:00 +13°C° 0 mm 2 mps 630 mmHg 54%
    08:00 +16°C° 0 mm 2 mps 631 mmHg 47%
    09:00 +19°C° 0 mm 2 mps 632 mmHg 41%
    10:00 +20°C° 0 mm 2 mps 632 mmHg 39%
    11:00 +21°C° 0 mm 2 mps 633 mmHg 37%
    12:00 +23°C° 0 mm 2 mps 633 mmHg 35%
    13:00 +23°C° 0 mm 2 mps 632 mmHg 36%
    14:00 +23°C° 0 mm 2 mps 632 mmHg 37%
    15:00 +23°C° 0 mm 2 mps 632 mmHg 38%
    16:00 +21°C° 0 mm 2 mps 631 mmHg 45%
    17:00 +20°C° 0 mm 2 mps 631 mmHg 52%
    18:00 +18°C° 0 mm 2 mps 630 mmHg 59%
    19:00 +16°C° 0 mm 2 mps 630 mmHg 65%
    20:00 +15°C° 0 mm 2 mps 630 mmHg 70%
    21:00 +13°C° 0 mm 2 mps 629 mmHg 76%
    22:00 +13°C° 0 mm 2 mps 629 mmHg 77%
    23:00 +13°C° 0 mm 2 mps 629 mmHg 77%
    Show more